[[{"header":{"parameterUnit":"m.s-1","parameterCategory":1,"la1":30.2991,"la2":30.254,"lo1":-89.0895,"lo2":-89.0444,"dy":0.0017,"dx":0.0017,"nx":28,"ny":28,"refTime":"2025-05-21T21:00:00:Z","depth":0,"parameterNumber":2,"parameterNumberName":"U-component_of_WINDS"},"data":[0,0,0,0,0,0,0,0,0,0,0,0,0,0,0,0,0,0,0,0,0,0,0,0,0,0,0,0,0,0,0,0,0,0,0,0,0,0,0,0,0,0,0,0,0,0,0,0,0,0,0,0,0,0,0,0,0,0,1.4876,1.4877,0,1.4942,1.4943,1.4944,1.4941,1.494,1.4939,1.4939,1.5006,1.5009,1.5012,0,0,0,0,0,0,0,0,0,0,0,0,0,1.4748,1.475,1.4876,1.4877,1.4878,1.4942,1.4943,1.4944,1.4941,1.494,1.4939,1.4938,1.5005,1.5009,1.5012,0,0,0,0,0,0,0,0,0,0,0,0,0,1.4808,1.4751,1.4876,1.4884,1.4886,1.4942,1.4943,1.4944,1.4942,1.494,1.4939,1.4938,1.5004,1.5008,1.5012,1.5065,0,0,1.5025,1.5026,0,0,0,0,0,0,0,0,1.4804,1.4812,1.4882,1.4884,1.4885,1.4932,1.4923,1.4985,1.4942,1.492,1.4938,1.4937,1.4983,1.4989,1.5004,1.5068,1.5071,1.5025,1.5027,1.5029,1.503,0,0,0,0,0,0,0,1.48,1.481,1.4902,1.4883,1.4885,1.4885,1.4892,1.4935,1.4959,1.4922,1.4922,1.493,1.4983,1.5,1.5006,1.5072,1.5025,1.5028,1.5031,1.5032,1.5184,1.5186,0,0,0,0,0,0,1.4794,1.4806,1.49,1.4904,1.4841,1.4888,1.4896,1.4919,1.4958,1.4963,1.4931,1.493,1.4994,1.5001,1.5008,1.5073,1.5029,1.5033,1.5035,1.5183,1.5185,1.5186,0,0,0,0,0,0,1.4792,1.4803,1.4898,1.4855,1.4867,1.4892,1.4917,1.4921,1.4937,1.4965,1.4969,1.4944,1.4993,1.5002,1.5051,1.5075,1.5035,1.5038,1.5181,1.5183,1.5185,1.5203,0,0,0,0,0,0,1.4788,1.4802,1.4822,1.4856,1.487,1.4939,1.4919,1.4923,1.4944,1.4943,1.4978,1.4982,1.4993,1.5045,1.5055,1.508,1.5041,1.5179,1.5182,1.5185,1.5201,1.5206,1.5211,0,0,0,0,0,1.4783,1.4824,1.4823,1.4834,1.4895,1.4941,1.4949,1.496,1.4946,1.4967,1.4985,1.4981,1.5071,1.505,1.5061,1.5088,1.5177,1.5181,1.5184,1.5198,1.5205,1.5211,0,0,0,0,0,0,1.4792,1.4828,1.4828,1.488,1.4908,1.494,1.4966,1.4966,1.4998,1.4995,1.5008,1.5016,1.5065,1.5081,1.5057,1.5142,1.5122,1.5129,1.5129,1.5136,1.5141,1.5136,1.5045,0,0,0,0,0,1.48,1.4834,1.4864,1.4908,1.4921,1.4942,1.4962,1.4968,1.4997,1.5008,1.503,1.5058,1.5092,1.5115,1.5148,1.5203,1.5211,1.5227,1.5232,1.5236,1.5241,1.5273,1.528,1.5198,1.5198,1.5198,0,0,1.4816,1.4841,1.4861,1.491,1.4932,1.4967,1.4951,1.4989,1.5015,1.5014,1.5062,1.5079,1.5111,1.5163,1.5187,1.5178,1.5266,1.5241,1.5244,1.5247,1.5277,1.5285,1.5292,1.5201,1.52,1.52,0,0,1.4865,1.4887,1.4926,1.4948,1.4982,1.4995,1.5005,1.5038,1.5049,1.5097,1.5097,1.5129,1.5188,1.5212,1.5231,1.529,1.5288,1.5301,1.5327,1.5357,1.5364,1.5369,1.5391,1.5399,1.5306,1.5306,1.5306,0,1.4882,1.4935,1.4946,1.4984,1.5006,1.5007,1.5047,1.5068,1.5111,1.5126,1.5116,1.5191,1.5212,1.5271,1.5285,1.5301,1.5312,1.5297,1.5362,1.5368,1.5373,1.5394,1.5402,1.5307,1.5307,1.5307,1.5307,0,1.4954,1.4991,1.5019,1.506,1.5085,1.5124,1.5142,1.5166,1.517,1.5185,1.5234,1.5261,1.53,1.5314,1.5318,1.5373,1.5367,1.5359,1.534,1.5382,1.5402,1.541,1.5309,1.5308,1.5308,1.5308,0,0,1.5009,1.5057,1.5067,1.5087,1.5124,1.5153,1.5193,1.5231,1.5252,1.5281,1.5315,1.5366,1.5359,1.5381,1.5389,1.5415,1.5462,1.5404,1.5405,1.5414,1.5525,1.5531,1.554,1.5461,1.5462,1.5463,1.5522,0,1.5062,1.5132,1.5144,1.5206,1.524,1.5242,1.5277,1.5304,1.5319,1.5351,1.5368,1.5404,1.5391,1.5405,1.5432,1.545,1.5484,1.5446,1.5493,1.5494,1.5485,1.555,1.5556,1.561,1.553,1.5531,1.5532,0,1.5133,1.5166,1.5231,1.5265,1.528,1.531,1.5347,1.5378,1.5409,1.5418,1.5443,1.5448,1.5489,1.5468,1.5526,1.55,1.552,1.5532,1.5535,1.554,1.5516,1.5557,1.5628,1.5636,1.5544,1.5543,1.5543,0,1.5168,1.5227,1.5274,1.5291,1.5331,1.5353,1.5371,1.5401,1.5424,1.5456,1.5471,1.5508,1.5528,1.5556,1.5571,1.5554,1.5628,1.5608,1.5637,1.5637,1.5653,1.5652,1.5728,1.5665,1.5665,1.5665,1.5665,0,1.5226,1.5266,1.5291,1.5319,1.5365,1.5378,1.5422,1.544,1.5467,1.5499,1.5503,1.5534,1.5551,1.5584,1.5596,1.5642,1.5651,1.566,1.5663,1.566,1.5659,1.5673,1.567,1.5667,1.5667,1.5666,1.5666,0,1.5272,1.529,1.5342,1.5376,1.5386,1.5418,1.5447,1.5476,1.5491,1.5533,1.5543,1.5567,1.5607,1.5624,1.5672,1.568,1.5734,1.5734,1.5724,1.5725,1.5753,1.575,1.5841,1.5854,1.5782,1.5783,1.5784,0,1.5308,1.5339,1.5378,1.54,1.5419,1.5454,1.5478,1.5493,1.5517,1.5555,1.5579,1.5619,1.5652,1.5715,1.5737,1.5774,1.5775,1.5805,1.5781,1.5777,1.5776,1.5774,1.5778,1.5809,1.581,1.581,1.5811,0,1.5371,1.5378,1.5412,1.545,1.5478,1.5508,1.5537,1.5555,1.5575,1.5602,1.5643,1.5668,1.5718,1.5758,1.5797,1.5816,1.5817,1.5818,1.5827,1.5824,1.5817,1.5822,1.5736,1.5816,1.5815,1.5815,1.5815,1.5814,1.5413,1.5441,1.5473,1.5511,1.5535,1.5562,1.5591,1.561,1.5645,1.5687,1.5693,1.5737,1.5768,1.5821,1.5841,1.5876,1.5868,1.5881,1.5884,1.5887,1.5889,1.5812,1.5883,1.5883,1.5883,1.5882,1.5882,0,1.5476,1.5497,1.5532,1.5573,1.5603,1.5602,1.5635,1.566,1.5698,1.5727,1.576,1.5807,1.5846,1.5871,1.591,1.5933,1.5935,1.5943,1.5942,1.5946,1.5893,1.5882,1.5941,1.5941,1.5941,1.5941,1.5941,1.5941,1.5513,1.556,1.5572,1.5632,1.5652,1.5695,1.5714,1.574,1.5763,1.5816,1.5848,1.5864,1.5892,1.5934,1.597,1.5976,1.5991,1.5999,1.6006,1.5956,1.595,1.5944,1.5933,1.6002,1.6002,1.6056,1.6056,1.6056]},{"header":{"parameterUnit":"m.s-1","parameterCategory":1,"la1":30.2991,"la2":30.254,"lo1":-89.0895,"lo2":-89.0444,"dy":0.0017,"dx":0.0017,"nx":28,"ny":28,"refTime":"2025-05-21T21:00:00:Z","depth":0,"parameterNumber":3,"parameterNumberName":"V-component_of_WINDS"},"data":[0,0,0,0,0,0,0,0,0,0,0,0,0,0,0,0,0,0,0,0,0,0,0,0,0,0,0,0,0,0,0,0,0,0,0,0,0,0,0,0,0,0,0,0,0,0,0,0,0,0,0,0,0,0,0,0,0,0,-1.0481,-1.0481,0,-1.0487,-1.0487,-1.0487,-1.0471,-1.047,-1.047,-1.0469,-1.0475,-1.0476,-1.0477,0,0,0,0,0,0,0,0,0,0,0,0,0,-1.0456,-1.0456,-1.0481,-1.0481,-1.0481,-1.0487,-1.0487,-1.0487,-1.0471,-1.047,-1.047,-1.0469,-1.0475,-1.0476,-1.0477,0,0,0,0,0,0,0,0,0,0,0,0,0,-1.0465,-1.0457,-1.0481,-1.0474,-1.0473,-1.0487,-1.0487,-1.0487,-1.0471,-1.047,-1.0469,-1.0469,-1.0475,-1.0476,-1.0477,-1.0498,0,0,-1.048,-1.048,0,0,0,0,0,0,0,0,-1.0464,-1.0466,-1.0475,-1.0474,-1.0474,-1.0477,-1.048,-1.0491,-1.0471,-1.0472,-1.0469,-1.0468,-1.0477,-1.0477,-1.048,-1.0498,-1.0498,-1.048,-1.048,-1.0481,-1.0481,0,0,0,0,0,0,0,-1.0464,-1.0465,-1.0483,-1.0475,-1.0474,-1.047,-1.0471,-1.0482,-1.0478,-1.0472,-1.047,-1.0471,-1.0476,-1.0479,-1.048,-1.0499,-1.048,-1.0481,-1.0481,-1.0482,-1.0534,-1.0534,0,0,0,0,0,0,-1.0464,-1.0465,-1.0483,-1.0483,-1.0467,-1.0471,-1.0472,-1.0477,-1.0478,-1.0478,-1.0472,-1.0471,-1.0478,-1.0479,-1.048,-1.0505,-1.0481,-1.0482,-1.0482,-1.0533,-1.0534,-1.0535,0,0,0,0,0,0,-1.0464,-1.0466,-1.0483,-1.0474,-1.0476,-1.0472,-1.0478,-1.0477,-1.048,-1.0478,-1.0478,-1.0476,-1.0478,-1.0479,-1.0494,-1.0505,-1.0482,-1.0483,-1.0532,-1.0533,-1.0534,-1.0554,0,0,0,0,0,0,-1.0463,-1.0466,-1.0474,-1.0474,-1.0476,-1.0496,-1.0479,-1.0478,-1.0482,-1.048,-1.0482,-1.0481,-1.0477,-1.0492,-1.0495,-1.0506,-1.0484,-1.0531,-1.0533,-1.0534,-1.0552,-1.0556,-1.0559,0,0,0,0,0,-1.0462,-1.0479,-1.0474,-1.0476,-1.0486,-1.0497,-1.0498,-1.0492,-1.0483,-1.0491,-1.049,-1.0481,-1.0503,-1.0494,-1.0496,-1.0508,-1.053,-1.0532,-1.0534,-1.0551,-1.0555,-1.0559,0,0,0,0,0,0,-1.048,-1.0479,-1.0474,-1.0491,-1.0494,-1.0494,-1.0504,-1.0497,-1.0503,-1.0501,-1.0494,-1.0494,-1.051,-1.051,-1.05,-1.0528,-1.0515,-1.0518,-1.0527,-1.0531,-1.0534,-1.0534,-1.0485,0,0,0,0,0,-1.0486,-1.0495,-1.0493,-1.0509,-1.0511,-1.0507,-1.0511,-1.0507,-1.051,-1.0511,-1.0511,-1.0514,-1.0521,-1.0526,-1.0533,-1.0552,-1.0552,-1.0562,-1.0565,-1.0567,-1.057,-1.058,-1.0584,-1.0541,-1.0541,-1.0541,0,0,-1.0499,-1.0499,-1.0505,-1.0513,-1.0514,-1.0523,-1.0508,-1.0518,-1.0525,-1.0512,-1.0526,-1.0526,-1.0529,-1.0546,-1.0553,-1.0547,-1.0581,-1.057,-1.0572,-1.0573,-1.0582,-1.0586,-1.059,-1.0542,-1.0542,-1.0542,0,0,-1.0526,-1.0528,-1.0541,-1.0543,-1.0545,-1.0543,-1.0546,-1.0547,-1.0546,-1.0559,-1.055,-1.0558,-1.0571,-1.0573,-1.0576,-1.0605,-1.0597,-1.0607,-1.0624,-1.0633,-1.0637,-1.064,-1.065,-1.0653,-1.0609,-1.0609,-1.0609,0,-1.0542,-1.0555,-1.0548,-1.0559,-1.0563,-1.0552,-1.0565,-1.0567,-1.0572,-1.0575,-1.0567,-1.0583,-1.0584,-1.0602,-1.0608,-1.0611,-1.0615,-1.0607,-1.0637,-1.064,-1.0642,-1.0652,-1.0656,-1.061,-1.061,-1.061,-1.061,0,-1.0573,-1.0583,-1.0593,-1.0598,-1.0602,-1.0614,-1.061,-1.0615,-1.061,-1.0609,-1.0622,-1.0623,-1.063,-1.0634,-1.0629,-1.065,-1.0646,-1.0638,-1.0625,-1.0648,-1.0656,-1.066,-1.0612,-1.0612,-1.0611,-1.0611,0,0,-1.0613,-1.0613,-1.0617,-1.0619,-1.0621,-1.0628,-1.064,-1.0646,-1.0651,-1.0655,-1.0664,-1.0675,-1.0667,-1.0671,-1.0666,-1.0675,-1.0697,-1.0666,-1.0666,-1.0671,-1.072,-1.0727,-1.0731,-1.0692,-1.0693,-1.0693,-1.072,0,-1.064,-1.0659,-1.0653,-1.0673,-1.0681,-1.0671,-1.068,-1.0683,-1.0681,-1.0688,-1.0687,-1.0695,-1.0684,-1.0686,-1.0694,-1.0693,-1.0707,-1.0691,-1.0701,-1.0701,-1.07,-1.0736,-1.0742,-1.0767,-1.0724,-1.0724,-1.0725,0,-1.0674,-1.0678,-1.0699,-1.0699,-1.0702,-1.0711,-1.0716,-1.0723,-1.0726,-1.0724,-1.0728,-1.0721,-1.0732,-1.0719,-1.0735,-1.0724,-1.0728,-1.0728,-1.0728,-1.0729,-1.0714,-1.0737,-1.0775,-1.0779,-1.073,-1.0729,-1.0729,0,-1.07,-1.0712,-1.0725,-1.0727,-1.0728,-1.0734,-1.0735,-1.0736,-1.0741,-1.0745,-1.0748,-1.0754,-1.0757,-1.0762,-1.0758,-1.0748,-1.0774,-1.076,-1.0773,-1.0773,-1.0779,-1.0778,-1.0818,-1.0781,-1.0781,-1.0781,-1.0781,0,-1.0731,-1.0744,-1.0737,-1.0745,-1.0759,-1.0752,-1.0766,-1.0766,-1.0767,-1.0775,-1.0767,-1.0774,-1.0768,-1.0775,-1.0772,-1.0785,-1.0787,-1.0786,-1.0785,-1.0787,-1.0787,-1.0789,-1.0787,-1.0782,-1.0782,-1.0782,-1.0782,0,-1.0763,-1.0759,-1.0773,-1.0772,-1.0772,-1.0782,-1.0782,-1.079,-1.0787,-1.0798,-1.08,-1.0796,-1.0805,-1.0801,-1.0809,-1.0807,-1.0824,-1.082,-1.0823,-1.0822,-1.0835,-1.0834,-1.0877,-1.0883,-1.0843,-1.0843,-1.0843,0,-1.0782,-1.0792,-1.0792,-1.0797,-1.0798,-1.0806,-1.081,-1.0804,-1.0808,-1.0812,-1.0819,-1.0826,-1.0832,-1.0845,-1.0843,-1.085,-1.0847,-1.0861,-1.0848,-1.0849,-1.0847,-1.0846,-1.0847,-1.0864,-1.0865,-1.0865,-1.0865,0,-1.0818,-1.0815,-1.0821,-1.0827,-1.0832,-1.0836,-1.0839,-1.0844,-1.0838,-1.0843,-1.0851,-1.0855,-1.0864,-1.0871,-1.0877,-1.0878,-1.0871,-1.087,-1.0873,-1.0875,-1.0876,-1.0876,-1.0831,-1.0869,-1.0869,-1.0868,-1.0868,-1.0868,-1.0844,-1.0852,-1.0853,-1.086,-1.0862,-1.0865,-1.0873,-1.0871,-1.0878,-1.0884,-1.088,-1.0889,-1.0891,-1.0898,-1.09,-1.0907,-1.0901,-1.0906,-1.0907,-1.0909,-1.091,-1.0875,-1.0908,-1.0908,-1.0908,-1.0908,-1.0908,0,-1.0879,-1.0879,-1.0886,-1.0891,-1.0896,-1.0889,-1.0892,-1.0897,-1.0906,-1.0908,-1.0913,-1.0923,-1.093,-1.0929,-1.0935,-1.0941,-1.0938,-1.0943,-1.0943,-1.0943,-1.0915,-1.0912,-1.0945,-1.0945,-1.0945,-1.0945,-1.0945,-1.0945,-1.0898,-1.0911,-1.0908,-1.0922,-1.0922,-1.0931,-1.0934,-1.0937,-1.0938,-1.0949,-1.0955,-1.0954,-1.0955,-1.0961,-1.0968,-1.0967,-1.097,-1.0976,-1.0975,-1.0949,-1.0945,-1.0941,-1.0938,-1.0977,-1.0977,-1.1002,-1.1002,-1.1002]}]]